我用 App 记录自己跑步 2 年了,下面列表展示的是 2022 的数据


2022 Journey
69 Runs
239.6 KM
6:34 Avg Pace
5 day Streak
150 Avg Heart Rate

2021 Journey
98 Runs
349.8 KM
7:10 Avg Pace
14 day Streak
151 Avg Heart Rate

Total Journey
167 Runs
589.4 KM
6:54 Avg Pace
14 day Streak
150 Avg Heart Rate

KMPaceBPMTimeDate
午后跑步3.67:3015127min2022-11-27 17:56:15
午后跑步3.26:1016119min2022-11-26 18:02:14
午后跑步3.26:3415621min2022-11-20 18:26:14
午后跑步3.56:2915822min2022-11-19 17:58:58
午后跑步3.16:2814920min2022-11-13 18:04:26
午后跑步3.56:3615523min2022-11-12 17:59:23
午后跑步3.16:3816120min2022-11-06 18:09:35
午后跑步3.77:2727min2022-11-05 18:58:36
午后跑步3.56:2216222min2022-10-23 17:35:39
午后跑步3.16:5515321min2022-10-11 18:22:50
午后跑步3.07:3115022min2022-10-06 18:28:39
午后跑步3.06:5515120min2022-09-24 17:42:30
傍晚跑步3.07:0314521min2022-09-12 19:07:18
午后跑步3.17:1814622min2022-09-11 18:54:46
午后跑步3.26:5614722min2022-09-10 18:06:52
午后跑步3.16:1516419min2022-08-27 18:53:47
傍晚跑步3.16:5714321min2022-08-20 19:08:13
傍晚跑步3.16:0816319min2022-08-14 19:48:35
午后跑步3.16:5415521min2022-07-31 18:57:35
午后跑步3.16:4921min2022-07-30 18:48:11
午后跑步3.56:4214723min2022-07-24 18:42:28
午后跑步3.17:0515721min2022-07-23 18:44:57
午后跑步3.16:1516319min2022-07-17 18:51:46
午后跑步3.56:0116721min2022-07-16 18:57:52
午后跑步3.16:2116219min2022-07-10 18:53:38
午后跑步3.16:5415621min2022-06-26 18:47:54
午后跑步0.28:131min2022-06-25 18:31:30
傍晚跑步3.16:2413919min2022-06-19 20:02:15
午后跑步3.17:0814222min2022-06-18 18:22:22
傍晚跑步3.78:0712330min2022-06-11 20:03:05
傍晚跑步3.16:3816020min2022-06-05 19:44:35
午后跑步3.36:2715121min2022-05-29 18:52:03
午后跑步3.17:2115522min2022-05-28 18:45:39
傍晚跑步3.38:3115228min2022-05-22 19:33:23
午后跑步3.38:1512927min2022-05-21 18:14:03
傍晚跑步2.07:0011714min2022-05-14 19:22:37
午后跑步3.46:1813521min2022-05-08 18:56:09
午后跑步3.36:5016422min2022-05-04 18:04:54
傍晚跑步2.89:2513326min2022-05-03 20:31:23
午后跑步3.17:1814322min2022-04-23 18:26:39
午后跑步10.21:5915620min2022-04-16 18:25:31
午后跑步3.16:0817219min2022-04-10 18:40:14
午后跑步3.37:3714125min2022-04-09 18:37:12
傍晚跑步3.27:0012422min2022-04-04 19:36:39
午后跑步3.17:5914724min2022-04-03 18:48:56
午后跑步3.08:2814025min2022-02-16 17:38:04
午后跑步3.16:2615619min2022-02-15 18:57:54
午后跑步3.36:5415022min2022-02-14 18:31:13
午后跑步3.07:2022min2022-02-13 17:39:26
午后跑步3.17:0512621min2022-01-28 18:14:26
午后跑步3.26:4714321min2022-01-27 18:01:38
午后跑步3.07:2314522min2022-01-26 17:32:37
午后跑步3.36:2916221min2022-01-24 18:01:50
傍晚跑步3.16:1914419min2022-01-22 19:18:35
午后跑步3.07:3713722min2022-01-21 17:38:51
清晨跑步5.16:4814834min2022-01-18 07:33:16
清晨跑步4.86:5915333min2022-01-17 07:25:00
清晨跑步4.27:3231min2022-01-16 09:03:56
午后跑步5.26:3013833min2022-01-15 17:52:51
清晨跑步4.66:3115229min2022-01-13 07:38:44
清晨跑步5.16:0616431min2022-01-12 07:30:39
傍晚跑步5.07:0112535min2022-01-10 19:08:29
午后跑步5.06:3914533min2022-01-09 17:43:05
清晨跑步5.06:1015530min2022-01-07 07:33:05
清晨跑步4.75:3015825min2022-01-06 07:33:08
清晨跑步3.16:0814819min2022-01-05 07:35:32
清晨跑步3.15:4116317min2022-01-04 07:31:11
清晨跑步3.75:3116020min2022-01-03 07:34:44
清晨跑步3.05:4915817min2022-01-01 08:19:58